www.pogodaiklimat.ru

Погода и климат >> Архив погоды >> Мальдивы >> Кадхдху


ПОГОДА на Кадхдху

  • Прогноз погоды на Кадхдху
  • Монитор погоды на Кадхдху

АРХИВ ПОГОДЫ на Кадхдху

Время (UTC), дата Ветер
(напр.,м/с)
 
Видим.   Явления Облачность Т
(С)
Тd
(С)
f
(%)
Тe
(С)
Тes
(С)
Комфортность P
(гПа)
Po
(гПа)
Тmin
(С)
Tmax
(С)
R
(мм)
R24
(мм)
S
(см)
21 11.02 СВ 3 15 км 3/3 540 м
[Cu med, cong Ci fib]
+28.5 +24.2 78 +40 +40 очень
душно
1011.5 1011.3
00 12.02 СВ 6 15 км 3/3 540 м
[Cu med, cong Ci fib]
+28.4 +24.2 78 +40 +40 очень
душно
1011.5 1011.3
03 12.02 СВ 3 15 км 3/3 540 м
[Cu med, cong Ci fib]
+29.1 +24.8 78 +42 +44 опасность
перегрева
1013.2 1013.0 +27.5
06 12.02 СВ 5 13 км 3/3 540 м
[Cu med, cong Ci fib]
+30.8 +25.4 73 +45 +52 опасность
перегрева
1013.3 1013.1
09 12.02 СВ 3 13 км 4/4 540 м
[Cu med, cong Ci fib]
+30.2 +25.2 75 +44 +52 опасность
перегрева
1011.0 1010.8
12 12.02 С 4 12 км 4/4 540 м
[Cu med, cong Ac lent Ci sp]
+30.2 +25.4 76 +44 +45 опасность
перегрева
1010.7 1010.5 +31.6
15 12.02 СВ 3 12 км {ливн. осадки} 4/3 540 м
[Cu med, cong Ac trans Ci sp]
+29.0 +25.0 79 +42 +42 опасность
перегрева
1012.8 1012.6
18 12.02 С 5 12 км {ливн. осадки} 6/3 540 м
[Cu med, cong Ac trans Ci sp]
+29.0 +24.9 79 +42 +42 опасность
перегрева
1014.1 1013.9 0.0
21 12.02 СВ 3 10 км зарница 4/3 540 м
[Cb cap Ac lent Ci sp]
+28.6 +24.6 79 +41 +41 опасность
перегрева
1012.6 1012.4
00 13.02 СВ 5 10 км 3/3 540 м
[Cu med, cong Ci fib]
+28.4 +24.7 80 +40 +40 очень
душно
1012.3 1012.1 0.0
03 13.02 СВ 3 7000 м мгла 9/3 540 м
[Cu med, cong Ac cuf Cs]
+29.0 +24.7 78 +41 +43 опасность
перегрева
1014.5 1014.3 +28.0
06 13.02 В 6 7000 м мгла 9/3 540 м
[Cu med, cong Ac As]
+28.5 +24.9 81 +41 +43 опасность
перегрева
1014.8 1014.6
09 13.02 С 3 7000 м в посл. час ливневой дождь 9/5 500 м
[Cb cap Ac As]
+27.2 +25.6 91 +40 +43 очень
душно
1012.4 1012.2
12 13.02 С 4 7000 м мгла 9/3 500 м
[Cu med, cong Ac trans Ci sp]
+28.5 +25.1 82 +41 +42 опасность
перегрева
1011.9 1011.7 +30.9 2
15 13.02 СВ 4 7000 м слаб. ливневой дождь 9/4 480 м
[Cb cap Ac As Ci sp]
+26.9 +25.0 89 +39 +39 очень
душно
1013.7 1013.5
18 13.02 СВ 4 7000 м в посл. час ливневой дождь {гроза} 9/4 500 м
[Cb cap Ac As Ci sp]
+27.0 +25.4 91 +39 +39 очень
душно
1013.9 1013.7 0.5
21 13.02 С 2 7000 м зарница 9/4 500 м
[Cb cap Ac As]
+27.9 +24.5 82 +39 +39 очень
душно
1011.8 1011.6
00 14.02 С 4 7000 м в посл. час ливневой дождь 9/6 500 м
[Cb cap Ac As]
+27.6 +25.0 86 +40 +40 очень
душно
1011.6 1011.4 0.8
03 14.02 СВ 3 7000 м слаб. ливневой дождь 9/4 500 м
[Cu med, cong Ac As Cs]
+28.5 +25.1 82 +41 +43 опасность
перегрева
1013.4 1013.2 +26.1
06 14.02 СВ 4 7000 м мгла 9/4 500 м
[Cb cap Ac trans Cs]
+29.8 +26.0 80 +45 +50 опасность
перегрева
1013.6 1013.4 9
09 14.02 С 2 7000 м в посл. час ливневой дождь 9/3 500 м
[Cb cap Ac trans Ci sp]
+30.0 +25.2 76 +44 +50 опасность
перегрева
1011.2 1011.0
12 14.02 С 2 7000 м мгла 9/3 540 м
[Cu med, cong Ac trans Ci sp]
+28.9 +25.7 83 +43 +44 опасность
перегрева
1010.5 1010.3 +31.9 9
15 14.02 В 2 7000 м зарница {ливн. осадки} 9/3 500 м
[Cb cap Ac cuf Cs]
+28.1 +25.7 87 +42 +42 опасность
перегрева
1012.3 1012.1
18 14.02 В 4 7000 м зарница {ливн. осадки} 9/3 540 м
[Cb cap Ac cuf Cs]
+28.2 +25.1 83 +41 +41 опасность
перегрева
1013.3 1013.1 1
21 14.02 В 2 7000 м 9/3 540 м
[Cu med, cong Ac trans Cs]
+28.0 +24.9 83 +40 +40 очень
душно
1011.6 1011.4
00 15.02 СВ 3 7000 м мгла 9/3 540 м
[Cu med, cong Ac trans Cs]
+27.9 +24.6 82 +39 +39 очень
душно
1011.3 1011.1 1
03 15.02 СВ 3 10 км 9/3 540 м
[Cu med, cong Ac trans Ci sp]
+28.7 +25.1 81 +42 +43 опасность
перегрева
1013.7 1013.5 +26.4
06 15.02 СВ 4 9000 м 9/3 540 м
[Cu med, cong Ac trans Ci sp]
+30.1 +25.7 77 +44 +50 опасность
перегрева
1014.5 1014.3
09 15.02 СВ 2 12 км 9/3 540 м
[Cu med, cong Ac trans Ci sp]
+30.5 +25.6 75 +45 +51 опасность
перегрева
1012.0 1011.8
12 15.02 СВ 4 12 км в посл. час ливневой дождь 5/3 540 м
[Cu med, cong Ac trans Ci sp]
+29.4 +25.4 79 +43 +44 опасность
перегрева
1011.4 1011.2 +31.2 0.7
15 15.02 СВ 2 12 км 5/3 540 м
[Cu med, cong Ac trans Ci sp]
+28.5 +25.5 84 +42 +42 опасность
перегрева
1013.5 1013.3
18 15.02 В 4 12 км 3/1 540 м
[Cu med, cong Ac lent Ci sp]
+28.5 +24.9 81 +41 +41 опасность
перегрева
1014.7 1014.5
21 15.02 СВ 2 12 км 5/1 540 м
[Cu med, cong Ac trans Ci sp]
+28.0 +24.9 83 +40 +40 очень
душно
1012.6 1012.4
00 16.02 СВ 3 12 км 4/3 540 м
[Cu med, cong Ac trans Ci sp]
+27.7 +24.7 84 +39 +39 очень
душно
1011.9 1011.7
03 16.02 В 1 12 км 5/3 540 м
[Cu med, cong Ac lent Ci sp]
+29.4 +25.3 79 +43 +46 опасность
перегрева
1014.2 1014.0 +26.8
06 16.02 В 3 12 км 8/3 540 м
[Cu med, cong Ac trans Ci sp]
+30.7 +26.4 78 +47 +55 опасность
перегрева
1014.7 1014.5
09 16.02 В 2 12 км 9/3 540 м
[Cu med, cong Ac lent Ci sp]
+30.6 +25.5 74 +45 +52 опасность
перегрева
1012.4 1012.2
15 16.02 В 2 12 км 9/3 540 м
[Cu med, cong Ac lent Ci sp]
+28.7 +24.8 79 +41 +41 опасность
перегрева
1013.8 1013.6
18 16.02 В 3 12 км 6/3 540 м
[Cu med, cong Ci sp]
+28.5 +24.9 81 +41 +41 опасность
перегрева
1015.3 1015.1
21 16.02 СВ 2 12 км 5/1 540 м
[Cu med, cong Ac trans Ci sp]
+28.0 +24.9 83 +40 +40 очень
душно
1012.6 1012.4
00 17.02 С 3 12 км 5/3 540 м
[Cu med, cong Ac trans Ci sp]
+27.4 +25.0 87 +39 +39 очень
душно
1012.0 1011.8
03 17.02 СВ 2 12 км 3/1 540 м
[Cu med, cong Ac trans Ci sp]
+29.1 +25.4 80 +42 +47 опасность
перегрева
1013.7 1013.5 +27.0
06 17.02 СВ 3 12 км 3/1 540 м
[Cu med, cong Ci fib]
+30.6 +26.1 77 +46 +61 опасность
перегрева
1013.8 1013.6
09 17.02 С 1 12 км 3/1 540 м
[Cu med, cong Ci sp]
+29.8 +25.6 78 +44 +60 опасность
перегрева
1011.3 1011.1
12 17.02 СВ 2 12 км 4/3 540 м
[Cu med, cong Ci sp]
+29.5 +24.8 76 +42 +43 опасность
перегрева
1010.2 1010.0 +31.9
15 17.02 нст 1 12 км 9/3 540 м
[Cu med, cong Ci sp]
+28.7 +25.1 81 +42 +42 опасность
перегрева
1012.2 1012.0
18 17.02 ЮЗ 2 9000 м слаб. ливневой дождь 9/4 500 м
[Cb cap Ac cuf Ci sp]
+25.7 +24.8 95 +36 +36 очень
душно
1013.7 1013.5 11
21 17.02 нст 1 10 км {ливн. осадки} 9/4 500 м
[Cb cap Ac As]
+26.8 +25.2 91 +39 +39 очень
душно
1011.1 1010.9
00 18.02 нст 1 10 км в посл. час гроза {ливн. осадки} 9/4 500 м
[Cb cap Ac As]
+25.9 +24.7 93 +37 +37 очень
душно
1010.9 1010.7 11
03 18.02 нст 1 12 км 9/3 500 м
[Cu med, cong Ac As]
+27.4 +25.1 87 +39 +41 очень
душно
1013.3 1013.1 +25.6
06 18.02 12 км 9/3 540 м
[Cu med, cong Ac As]
+29.6 +24.8 75 1013.4 1013.2
09 18.02 нст 1 12 км 9/3 540 м
[Cu med, cong Ac As]
+29.8 +24.5 73 +42 +47 опасность
перегрева
1009.7 1009.5
12 18.02 СЗ 1 12 км 9/3 540 м
[Cu med, cong Ac trans Ci sp]
+29.6 +25.4 78 +43 +44 опасность
перегрева
1009.0 1008.8 +30.9
15 18.02 СЗ 2 12 км в посл. час ливневой дождь 5/3 540 м
[Cb cap Ac trans Ci sp]
+28.1 +24.8 82 +40 +40 очень
душно
1010.7 1010.5
18 18.02 нст 1 12 км {ливн. осадки} 5/3 540 м
[Cu med, cong Ac lent Ci sp]
+27.9 +25.2 85 +40 +40 очень
душно
1011.7 1011.5 0.0

 

Местоположение метеостанции Кадхдху (Мальдивы): широта 1.88 долгота 73.50 высота над уровнем моря 2 м.

В архиве по умолчанию представлена погода на Кадхдху за последнюю неделю. Архивные данные за месяц целиком и за предыдущие месяцы, начиная с января 2011 года, Вы можете получить, выбрав интересующий диапазон дат из раскрывающегося списка и нажав кнопку "Ввод!".


*Определитесь, кто Вы:
робот инопланетянин человек

Внимание! Время в таблицах - всемирное. Для получения местного времени необходимо прибавить поправку, которая равна 5 ч.

Смотрите также архив погоды в соседних городах и на ближайших метеорологических станциях:

Погода на Каадедхдху (Мальдивы) (166 км)
Погода в Мале (Мальдивы) (258 км)
Погода в Гане (Мальдивы) (287 км)
Погода на Ханимааду (Мальдивы) (541 км)
Погода на Миникое (Лакшадвип, Индия) (715 км)
Погода в Каньякумари (Тамилнад, Индия) (820 км)
Погода в Тривандрам аэропорту (Керала, Индия) (827 км)
Погода в Тривандраме (Керала, Индия) (828 км)
Погода в Галле (Шри Ланка) (877 км)
Погода в Пуналере (Керала, Индия) (878 км)

Пояснения к столбцам:

Ветер - указаны скорость ветра в м/с - средняя за 10 мин, порывы в срок и между сроками (в фигурных скобках) и направление, откуда дует ветер: С - северный, СВ - северо-восточный, В - восточный, ЮВ - юго-восточный, Ю - южный, ЮЗ - юго-западный, З - западный, СЗ - северо-западный.
Видимость - горизонтальная дальность видимости в метрах или километрах. При видимости от 1 до 10 км при отсутствии осадков обычно наблюдается дымка, при ухудшении видимости до 1 км и менее - туман. В сухую погоду видимость может ухудшаться дымом, пылью или мглою.
Явления - указаны атмосферные явления, наблюдавшиеся в срок или в последний час перед сроком; фигурными скобками обозначены явления, наблюдавшиеся между сроками (за 1-3 часа до срока); квадратными скобками обозначены град или гололедные отложения с указанием их диаметра в мм.
Облачность - указаны через наклонную черту общая и нижняя облачность в баллах и высота нижней границы облаков в метрах; квадратными скобками обозначены формы облаков: Ci - перистые, Cs - перисто-слоистые, Cc - перисто-кучевые, Ac - высококучевые, As - высокослоистые, Sc - слоисто-кучевые, Ns - слоисто-дождевые, Cu - кучевые, Cb - кучево-дождевые. Подробнее классификацию облаков см. в Атласе облаков (PDF).
T - Температура воздуха - температура, измеренная на высоте 2 м над землей.
Td - Температура точки росы - температура, при понижении до которой содержащийся в воздухе водяной пар достигнет насыщения.
f - Относительная влажность воздуха - влажноcть воздуха, измеренная на высоте 2 м над землей.
Te - Эффективная температура - температура, которую ощущает одетый по сезону человек в тени. Характеристика душности погоды. При расчете учитывается влияние влажности воздуха и скорости ветра на теплоощущения человека.
Tes - Эффективная температура на солнце - температура, которую ощущает человек, с поправкой на солнечный нагрев. Характеристика знойности погоды. Зависит от высоты солнца над горизонтом, облачности и скорости ветра. Ночью, в пасмурную погоду, а также при ветре 12 м/с и более поправка равна нулю.
P - Атмосферное давление - приведенное к уровню моря атмосферное давление.
Po - Атмосферное давление - измеренное на уровне метеостанции атмосферное давление.
Tmin - Минимальная температура - минимум температуры воздуха на высоте 2 м над землей.
Tmax - Максимальная температура - максимум температуры воздуха на высоте 2 м над землей.
R - Количество осадков - Количество выпавших осадков за период времени, мм. При наведении курсора мыши на число - период времени, за который выпало указанное количество осадков.
R24 - Количество осадков - Количество выпавших осадков за 24 часа, мм.
S - Снежный покров - Высота снежного покрова, см. При наведении курсора мыши на число - состояние снежного покрова и степень покрытия местности в баллах.